Location: Hammond
(31.0949°N, 96.7148°W)
Time: 08:17:40
(UTC+00:00)

Hubble Space Telescope - Visible Passes

Search period start: 12 April 2026 00:00
Search period end: 22 April 2026 00:00
Orbit: 474 x 477 km, 28.5° (Epoch: 11 April)

Date Brightness Start Highest point End Pass type
(mag) Time Alt. Az. Time Alt. Az. Time Alt. Az.
12 Apr 1.2 10:14:01 45° SE 10:14:01 45° SE 10:16:55 10° E visible
13 Apr 2.9 09:44:37 19° ESE 09:44:37 19° ESE 09:45:46 10° E visible
13 Apr 1.1 11:18:40 13° W 11:21:40 41° S 11:25:13 10° ESE visible
14 Apr 1.0 10:49:19 31° WSW 10:50:31 42° SSW 10:54:04 10° ESE visible
15 Apr 1.4 10:20:04 37° SSE 10:20:04 37° SSE 10:22:54 10° ESE visible
16 Apr 3.0 09:50:54 15° SE 09:50:54 15° SE 09:51:44 10° ESE visible
16 Apr 2.3 11:25:04 10° WSW 11:27:33 17° SSW 11:30:01 10° SSE visible
17 Apr 2.2 10:55:55 17° SSW 10:56:21 17° SSW 10:58:50 10° SSE visible
18 Apr 2.8 10:26:59 13° S 10:26:59 13° S 10:27:40 10° SSE visible
21 Apr 3.0 02:12:17 10° S 02:12:18 10° S 02:12:18 10° S visible
